Wind_Gust
9 20 20 20 23 23 13 12 13 15 15 14 13 13 17 18 19 11 16 11 9 17 22 22 24 25 23 24 22 22 21 22 23 22 21 20 20 21 21 21 21 21 21 19 21 22 25 24 25 23 20 20 19 18 17 17 16 15 16 14 13 11 8 9 7 9 11 11 11 10 12 11 12 11 7 8 8 10 10 10 10 10 10 10 10 10
14 21 21 13 17 16 10 7 10 14 11 15 17 18 22 22 22 20 15 15 11 16 22 22 26 27 26 23 24 22 25 26 25 26 25 23 23 23 23 23 23 22 22 21 18 20 23 27 24 23 22 20 23 21 19 18 17 16 15 15 14 13 11 9 7 9 8 9 11 11 13 12 12 14 12 11 9 9 7 8 8 9 8 9 10 9
21 22 18 15 11 11 7 10 10 13 14 14 20 20 22 23 19 15 10 12 12 16 24 24 27 25 25 25 25 24 23 26 26 26 26 26 25 26 26 24 23 22 22 21 19 20 24 25 26 26 22 22 22 21 21 19 18 17 16 15 14 14 13 12 10 10 10 8 8 9 10 12 11 10 11 10 9 7 9 7 7 7 8 10 11 10
21 25 16 12 11 10 11 12 12 14 16 17 19 22 22 16 15 19 22 11 13 20 19 20 25 23 22 24 27 27 29 27 23 25 26 26 26 24 22 21 19 19 22 19 20 23 24 25 27 25 24 22 21 21 20 20 20 19 18 15 15 15 13 13 11 9 9 8 8 7 7 8 9 10 8 6 8 6 7 10 8 7 9 11 12 13
15 20 13 13 12 13 15 13 15 16 20 18 18 21 22 13 16 21 17 11 9 15 17 21 24 29 27 28 30 27 27 27 27 27 28 26 24 23 22 22 19 16 17 19 21 22 23 25 26 27 25 24 22 21 21 21 21 18 18 17 17 16 14 14 13 12 11 12 12 11 10 10 11 8 9 9 9 9 8 8 7 9 11 13 12 13
19 14 15 12 14 16 15 17 18 17 17 21 19 16 16 15 13 11 10 14 17 19 22 18 24 29 29 30 29 25 30 30 28 27 27 28 27 26 26 23 20 17 14 17 21 24 24 25 25 26 25 24 23 23 21 20 21 19 19 18 18 16 15 15 14 13 13 12 8 10 9 8 8 8 10 11 10 11 11 11 8 9 9 12 14 13
16 10 10 12 15 15 17 19 16 17 22 12 21 20 13 15 13 13 13 16 20 21 21 18 21 22 16 19 21 20 18 21 22 26 28 28 27 27 25 22 22 21 20 17 18 22 23 24 24 25 25 26 24 23 21 20 20 20 19 18 19 17 16 16 15 13 11 11 10 8 8 8 8 8 10 8 7 7 9 10 10 10 7 10 12 13
20 15 13 11 14 17 19 22 20 17 20 22 18 13 10 14 16 15 16 20 26 13 20 18 21 21 22 19 21 21 20 20 21 21 23 25 23 23 21 22 20 23 19 19 20 21 22 23 24 25 25 25 25 22 22 20 19 20 20 18 19 17 16 15 15 13 11 11 10 9 8 8 8 8 9 7 7 6 7 9 9 11 11 10 10 11
14 14 14 16 15 22 23 20 10 18 24 17 10 11 14 15 15 17 19 21 23 18 20 23 21 26 26 23 15 18 21 20 21 22 22 22 21 21 21 21 21 20 19 20 20 21 21 22 23 24 25 24 23 22 22 21 20 20 19 19 18 18 16 16 16 14 12 10 10 10 10 8 10 10 9 9 7 6 6 8 8 10 11 11 11 12
11 14 16 15 18 21 19 21 14 12 22 10 10 10 15 13 15 18 22 22 22 21 22 23 20 27 23 20 22 19 21 21 22 22 21 21 21 20 21 19 19 19 19 21 21 21 21 21 22 22 23 22 21 22 21 19 19 19 19 19 19 18 17 17 16 15 13 11 11 10 8 8 9 8 8 6 7 7 6 7 8 9 9 10 9 10
13 9 8 17 21 22 16 10 9 15 16 11 12 17 20 20 21 21 22 23 21 28 27 24 21 24 26 18 17 23 24 18 18 20 20 20 20 20 18 20 20 21 21 21 21 22 21 21 22 22 23 22 21 20 20 20 19 19 19 20 20 20 19 17 18 16 15 13 12 11 11 10 9 9 7 8 9 8 7 8 7 9 9 9 10 10
20 18 19 22 20 21 13 15 14 15 15 15 20 22 20 23 19 21 21 21 25 27 25 26 25 20 24 23 22 15 16 15 14 16 18 19 20 20 18 20 20 21 21 22 23 22 21 21 20 20 21 23 23 21 21 20 19 20 20 20 21 20 19 18 18 17 16 15 13 11 11 11 10 10 10 9 8 8 9 9 10 9 10 10 10 10
25 25 18 20 19 22 21 21 21 19 18 22 22 23 23 25 22 27 24 28 30 26 20 17 17 22 30 27 24 13 15 15 15 17 18 20 20 20 20 20 21 21 21 23 23 23 23 23 24 23 23 24 23 22 21 21 20 20 20 21 21 21 20 19 18 18 17 15 14 13 13 12 12 11 10 9 9 8 10 10 10 9 11 11 11 10
20 22 23 21 19 23 21 25 21 21 23 24 27 24 25 28 26 26 26 26 28 29 27 20 16 26 19 21 21 20 17 15 16 16 13 17 18 18 19 20 21 21 22 23 23 24 25 26 25 24 24 24 22 21 22 21 20 20 19 21 22 22 21 19 19 19 18 17 16 14 14 13 13 12 12 10 10 10 10 9 10 11 12 12 12 13
19 20 24 20 22 20 28 28 23 18 20 26 23 29 25 27 32 25 27 25 25 19 14 10 15 17 10 11 16 22 19 18 18 19 18 16 16 16 17 18 18 20 20 22 22 23 24 25 24 23 23 22 22 21 22 21 21 20 20 21 22 22 23 22 21 20 19 19 17 16 15 15 13 13 12 12 10 10 11 10 11 12 13 14 14 14
23 29 15 21 13 18 21 22 24 24 26 24 24 26 30 28 21 34 27 29 28 23 18 18 24 9 20 12 11 11 15 18 20 22 20 20 20 18 18 20 21 21 22 23 22 23 21 22 22 22 21 21 21 21 20 20 20 20 20 20 22 23 23 22 21 20 20 19 18 16 16 15 14 13 12 12 11 11 10 11 12 13 13 14 15 14
21 27 11 17 12 18 18 18 24 19 26 13 21 31 29 22 26 27 24 27 19 25 38 28 24 29 25 29 24 22 22 22 21 23 23 22 22 20 20 21 21 23 24 23 23 22 20 21 22 22 21 20 19 19 20 20 20 20 20 20 21 22 21 22 22 20 20 19 18 18 17 15 14 13 12 11 10 11 11 12 13 14 14 13 15 16
23 26 13 16 18 19 21 19 19 19 25 30 29 22 20 22 23 27 31 21 27 32 32 21 24 23 25 34 24 30 28 27 26 25 25 23 22 23 22 20 21 22 22 21 21 21 21 22 22 23 21 20 19 18 18 19 17 18 18 19 21 22 24 23 23 22 20 20 19 18 17 16 15 14 13 12 12 12 13 13 14 14 15 15 15 15
13 28 25 24 26 21 13 13 23 25 24 31 30 19 27 26 24 24 28 29 30 32 35 24 27 31 31 33 25 23 25 26 26 24 25 26 25 24 22 20 20 19 20 21 21 22 22 22 23 22 20 22 20 18 17 18 18 16 16 17 19 22 24 23 23 21 21 20 19 18 18 17 16 15 14 13 13 13 14 14 14 14 15 15 16 19
14 22 28 20 24 17 19 21 28 24 24 25 22 30 26 30 33 33 30 27 33 31 27 28 33 39 31 31 26 30 27 22 23 24 25 26 25 24 22 20 20 20 20 22 22 23 23 22 22 23 22 23 19 18 17 17 16 17 17 18 18 20 21 22 22 22 21 21 19 18 18 17 17 16 15 14 14 15 15 15 15 16 16 17 18 19
18 16 32 23 21 16 29 26 29 27 26 26 27 28 27 34 25 30 29 33 34 34 34 36 37 34 30 22 24 26 28 26 23 26 26 26 25 24 22 19 19 20 21 21 21 22 22 21 21 21 22 24 21 18 17 17 17 18 18 18 19 21 23 23 23 22 21 21 20 18 18 17 16 15 15 14 15 15 16 16 16 17 17 17 18 18
23 17 27 28 28 32 30 24 24 25 24 24 26 27 25 26 27 29 33 30 38 41 40 37 43 36 27 20 19 22 23 25 24 24 24 23 24 22 20 18 19 19 19 20 20 20 21 21 21 22 22 19 21 19 18 18 17 18 18 19 20 22 23 23 25 23 22 20 19 18 18 17 15 16 15 15 15 16 17 17 17 17 18 18 19 19
14 19 26 28 31 32 29 28 27 28 29 29 26 30 27 29 31 33 36 31 31 38 34 37 35 37 29 23 27 26 26 28 27 26 25 21 23 23 22 22 21 20 20 22 21 22 21 19 21 23 21 19 18 18 19 18 17 18 17 18 19 22 22 23 24 23 22 20 19 19 18 17 16 16 15 15 15 16 18 18 17 18 20 21 21 20
8 18 24 33 31 32 32 29 30 30 30 33 33 33 33 37 33 36 37 30 34 27 33 36 43 42 25 19 22 20 22 22 23 22 22 23 25 24 23 22 23 22 22 22 22 22 22 21 20 19 20 22 20 16 18 17 17 17 18 19 20 21 22 23 23 23 22 20 19 18 17 17 16 15 15 15 16 16 17 18 18 18 20 21 21 22
17 13 21 26 31 30 26 27 30 27 33 33 29 22 21 26 25 24 24 23 33 35 36 36 43 36 23 20 19 19 22 25 27 27 26 29 24 24 24 24 24 23 24 24 24 23 23 22 21 24 24 24 24 22 17 18 17 17 18 18 19 20 21 22 22 22 22 21 20 19 18 16 16 15 16 16 16 16 17 17 19 19 20 21 22 21
20 19 23 26 26 28 28 20 19 16 16 19 16 20 21 24 24 23 27 27 34 31 33 41 42 31 30 28 27 25 27 28 27 29 30 29 27 27 27 27 27 27 27 27 26 25 24 24 25 23 22 25 22 20 20 18 17 17 18 18 16 19 20 21 21 21 20 20 20 19 17 16 15 15 15 15 16 16 17 18 19 20 20 21 23 24
21 22 25 26 28 32 32 29 23 23 26 27 24 27 29 26 27 27 28 34 38 30 34 32 34 33 36 34 33 34 35 31 31 30 31 32 30 34 31 29 29 29 28 29 27 27 25 23 24 24 24 22 19 18 18 18 18 18 18 18 18 19 20 20 20 20 20 18 18 18 17 17 15 15 14 14 16 16 17 19 19 20 22 22 24 25
23 25 24 25 32 37 35 35 31 28 29 33 33 33 32 32 30 30 31 40 30 34 42 33 27 31 33 34 32 33 34 33 33 31 31 28 34 33 33 34 26 30 29 28 27 28 27 25 24 23 21 20 21 19 18 18 18 19 19 20 19 19 19 19 19 20 19 18 17 16 15 14 13 13 15 15 16 17 18 19 20 21 21 23 26 27
21 27 22 25 31 34 34 34 31 32 30 33 34 34 35 34 31 28 26 34 32 36 42 28 32 29 33 38 40 39 37 37 36 37 34 32 30 29 36 35 34 35 29 28 27 27 26 26 24 23 23 23 20 18 18 18 18 18 18 19 19 19 20 20 19 20 19 18 17 16 15 14 13 14 15 17 18 18 18 19 19 21 23 24 26 27
25 27 24 26 33 34 33 31 29 30 29 32 34 37 37 34 30 33 36 35 37 33 34 34 30 34 37 39 41 41 36 35 36 34 35 34 33 32 30 34 34 33 35 29 28 27 26 26 25 23 23 21 21 21 20 19 19 20 19 19 20 20 20 20 19 19 19 18 17 15 15 15 14 16 16 17 17 18 18 19 20 22 24 26 27 28
25 29 16 20 24 31 31 30 31 32 31 36 35 38 37 34 33 33 35 28 32 30 33 30 29 33 38 38 41 39 36 35 36 38 38 37 36 35 36 36 30 32 32 34 29 27 27 26 25 23 23 21 21 20 20 19 18 19 19 20 21 21 21 21 20 19 18 17 16 15 15 15 15 16 16 16 17 17 19 20 20 22 24 25 26 28
20 25 22 27 30 33 29 25 27 29 30 32 36 37 31 29 29 27 35 23 25 28 25 22 30 41 37 36 36 36 36 36 37 39 39 38 38 38 37 37 36 36 34 33 33 28 27 23 24 24 23 21 21 20 19 19 18 19 20 20 21 21 21 20 19 18 17 16 15 15 15 16 16 16 16 16 18 19 19 19 21 23 24 26 27 28
26 26 27 23 30 35 30 24 25 20 22 33 40 29 25 33 33 34 35 32 32 26 28 33 36 34 37 34 35 36 37 37 37 37 37 38 38 39 39 38 39 40 36 35 34 33 24 24 23 23 21 21 22 22 20 20 18 19 19 20 20 20 20 19 18 17 17 15 15 15 14 15 16 17 17 17 17 18 18 20 22 23 24 26 26 27
24 25 27 21 31 33 25 19 18 24 34 49 22 20 24 24 24 26 26 25 28 30 35 34 35 36 36 37 37 36 38 39 36 34 34 36 36 35 39 39 38 37 38 37 37 35 24 24 24 22 20 18 19 18 18 18 18 18 17 20 19 19 19 19 18 16 16 15 14 14 14 15 16 17 17 16 16 18 20 20 22 22 23 26 27 28
23 24 27 27 31 34 23 19 29 36 49 25 25 27 25 27 29 30 29 30 30 30 31 34 35 37 38 37 37 38 38 39 38 39 37 33 36 38 38 36 34 27 30 30 34 27 22 22 20 19 19 16 16 14 15 17 17 18 20 20 20 19 18 18 18 16 14 13 13 14 14 16 17 17 17 16 18 19 20 20 22 23 25 26 27 29
29 29 29 31 31 30 32 31 40 47 25 24 26 25 23 25 28 27 30 31 32 32 32 35 34 36 35 36 35 34 33 34 35 39 39 37 31 28 25 33 29 29 30 28 26 23 22 22 21 21 19 17 18 18 18 17 18 20 20 20 20 19 18 17 15 15 14 13 13 15 15 16 16 17 17 18 19 20 20 21 22 24 25 26 28 30
33 34 33 37 29 38 33 35 43 29 35 30 27 22 21 24 13 17 29 21 24 25 29 31 27 28 30 31 32 33 34 35 35 37 33 36 33 26 29 28 25 27 27 26 23 21 21 20 20 18 17 17 16 17 16 18 20 20 20 20 20 19 18 16 15 14 12 12 14 14 15 16 17 17 18 19 20 20 20 21 21 24 27 29 30 30
32 35 27 35 38 33 34 38 39 33 38 26 20 16 13 12 12 14 8 27 25 25 19 19 21 21 22 25 24 26 26 31 34 34 32 34 32 28 29 27 27 28 27 24 22 21 18 16 17 17 16 14 13 13 15 19 21 21 20 20 20 19 18 17 16 14 12 12 13 14 15 16 17 18 18 19 21 21 20 22 23 22 24 28 31 33
31 32 28 35 37 33 35 38 39 35 37 22 13 14 12 13 12 9 17 32 21 16 18 18 18 21 21 24 25 25 27 31 33 32 28 28 31 34 29 26 28 24 23 22 22 18 17 17 13 16 15 13 14 16 16 20 21 22 21 20 19 18 17 14 12 10 11 12 13 15 16 17 17 18 19 20 20 20 21 23 24 22 24 29 30 33
31 26 27 35 35 41 36 39 40 37 42 21 17 16 18 20 14 10 24 24 16 16 16 18 20 20 21 23 25 26 26 31 34 30 27 30 31 28 27 28 19 21 21 20 17 17 16 15 14 13 12 13 14 15 19 21 23 20 20 19 17 16 14 11 9 9 11 12 13 14 16 16 17 17 19 20 21 21 22 22 23 22 25 29 32 33
25 28 28 33 32 34 30 40 38 39 32 20 21 17 14 11 16 25 33 22 23 21 21 23 24 23 23 25 24 29 25 26 31 29 26 22 17 18 15 16 20 18 19 19 18 12 17 17 14 14 13 13 14 17 20 22 21 21 19 17 16 14 11 10 9 10 11 12 14 16 16 16 16 17 19 20 20 19 21 23 22 21 23 29 30 31
28 25 28 25 31 33 31 35 36 31 19 12 11 15 15 18 27 29 23 24 25 25 23 21 23 23 23 24 25 28 31 30 30 28 27 24 22 17 16 19 20 17 16 16 16 16 14 13 12 11 11 11 16 20 22 22 22 20 19 17 14 12 11 10 9 9 12 13 15 15 15 16 17 16 18 19 20 21 20 21 20 22 25 28 29 31
28 27 27 28 26 28 29 33 33 33 13 11 15 19 11 17 21 23 26 26 24 25 24 22 22 22 22 25 24 27 30 31 27 24 21 16 17 17 21 23 18 18 17 20 19 16 14 14 15 15 13 15 16 21 22 22 20 19 17 16 13 13 11 9 8 11 12 13 14 15 15 15 16 17 16 18 20 21 22 21 20 22 25 26 28 31
19 30 31 29 27 35 30 33 29 14 9 14 19 23 16 22 29 27 27 30 25 26 27 26 21 20 21 24 25 26 28 28 26 20 16 14 14 21 21 18 17 18 15 17 18 19 15 14 14 15 14 15 18 21 22 23 21 20 17 15 14 12 10 10 9 9 12 13 15 15 16 17 17 16 17 18 19 20 21 20 24 25 25 25 27 30
13 30 26 33 16 24 30 27 25 27 26 26 27 28 28 24 23 26 26 27 27 26 25 28 26 22 22 24 25 25 27 26 23 21 18 18 18 16 18 18 16 17 17 14 13 13 13 14 13 13 15 15 19 22 22 22 21 18 16 15 13 13 12 10 9 10 12 14 14 15 16 16 17 17 17 18 19 21 21 21 23 26 24 24 25 27
25 23 21 22 31 26 34 34 30 31 29 28 24 25 26 21 25 20 19 21 20 20 25 26 25 23 23 22 26 25 24 22 19 17 16 14 16 19 19 19 15 12 12 12 12 12 12 12 12 13 15 16 20 22 21 21 20 19 16 15 14 13 12 10 9 10 12 13 14 15 18 17 18 17 18 19 17 17 19 20 22 24 25 24 24 26
23 22 29 36 29 30 37 20 24 25 23 21 25 25 27 27 25 16 17 16 19 19 23 24 24 23 22 25 25 24 23 21 14 11 15 19 19 14 13 14 13 13 11 11 11 10 12 12 14 15 16 16 20 22 22 20 18 19 16 17 16 14 12 10 8 9 10 11 14 14 15 17 18 19 20 17 16 16 18 19 21 20 21 20 22 24
21 17 19 23 24 29 34 27 28 31 31 31 31 29 26 23 23 17 17 17 19 20 22 23 22 21 18 24 22 20 21 12 12 11 16 18 16 12 12 13 13 13 12 11 11 10 11 12 14 14 17 18 21 23 23 20 19 20 18 17 16 14 12 9 8 9 10 12 12 14 16 17 8 14 19 18 17 15 16 18 19 18 18 20 20 22
33 25 33 22 32 30 30 33 34 32 34 33 28 20 15 19 22 23 23 22 19 20 19 21 21 21 21 23 21 18 10 9 16 20 23 17 11 11 10 11 10 11 11 12 11 9 10 12 15 16 16 18 20 23 23 21 19 19 18 16 16 14 11 10 9 7 8 10 11 14 15 15 16 18 18 19 17 15 15 15 16 17 16 9 13 18
31 35 30 27 33 34 34 30 22 29 27 24 16 19 15 14 20 22 21 23 19 19 19 23 21 20 18 18 11 8 8 10 14 14 17 16 10 8 8 10 11 9 11 10 10 11 11 10 10 13 17 19 21 23 24 23 20 20 19 17 15 13 11 9 9 7 7 10 10 14 16 16 16 17 18 19 18 17 16 5 8 8 13 19 11 12
34 34 31 32 28 30 26 25 27 29 30 28 27 23 21 23 21 22 22 23 17 14 16 17 19 20 15 14 13 12 10 13 10 13 14 14 11 8 9 11 11 8 8 8 10 11 11 13 14 15 16 19 21 23 24 22 20 20 18 17 15 13 12 10 7 7 8 9 13 11 15 16 16 18 19 19 18 17 17 19 17 6 8 10 10 12
Wind_Speed
2 8 8 8 9 12 8 6 6 8 8 7 5 6 6 7 9 0 6 3 2 6 10 11 13 14 13 13 11 12 12 12 13 13 11 10 9 10 10 10 11 11 11 10 12 13 16 15 14 13 11 11 11 11 10 9 8 8 7 7 6 4 3 3 1 3 3 3 3 3 4 4 5 4 2 1 2 3 3 3 3 3 3 3 4 4
5 9 9 5 10 9 5 1 5 7 5 8 8 9 9 11 10 10 3 7 3 7 10 12 14 15 15 13 14 12 14 15 14 15 14 13 12 11 13 13 12 12 11 13 11 12 15 15 15 13 11 12 13 12 11 11 10 9 8 7 6 5 4 2 1 3 2 3 3 3 4 4 4 5 4 3 3 2 1 1 1 2 2 3 3 2
8 9 8 4 5 5 0 2 4 7 7 7 9 9 10 9 9 7 2 5 4 5 10 13 14 13 13 12 13 12 12 13 15 15 14 15 15 13 14 14 14 12 12 12 11 12 14 16 17 14 12 12 13 13 12 11 10 10 8 7 7 6 5 4 4 3 3 2 3 3 3 4 3 4 3 3 3 1 2 1 1 0 1 3 3 3
8 10 7 5 4 0 2 5 5 7 7 7 8 9 8 6 6 6 11 2 5 6 8 10 13 10 11 14 16 16 16 14 14 15 16 15 15 14 13 11 10 11 12 11 9 12 14 15 15 14 13 13 12 12 12 11 11 9 9 8 8 7 6 6 4 3 3 2 2 1 1 2 3 2 2 1 3 1 1 3 2 1 2 3 4 4
4 9 7 4 3 5 7 6 7 7 8 9 9 9 9 6 7 9 4 3 1 8 10 11 10 11 12 14 13 14 15 15 15 16 16 15 14 12 11 12 11 9 9 9 11 13 13 15 16 16 15 13 12 12 12 12 11 8 10 9 9 8 7 6 7 5 5 4 4 3 2 3 4 2 3 3 3 3 2 1 1 3 3 5 4 5
7 6 8 4 5 7 8 8 9 8 6 9 12 9 9 8 6 4 4 6 6 6 10 9 7 10 15 17 15 12 14 16 16 16 16 14 15 15 15 14 12 10 7 9 12 14 14 15 15 16 15 15 13 13 12 11 11 11 10 10 10 8 7 7 8 7 6 5 3 4 3 2 1 1 3 4 3 3 3 3 2 3 2 3 5 6
4 2 3 3 6 7 9 9 9 9 9 5 7 11 6 8 7 6 6 6 7 8 6 9 8 6 4 7 10 10 8 11 11 14 16 15 14 15 13 12 11 12 11 9 10 13 14 14 15 15 15 15 14 13 12 11 11 12 10 10 11 9 8 8 8 7 5 5 3 2 1 1 1 1 3 1 1 1 2 2 3 3 2 3 4 5
8 6 5 5 5 8 9 9 10 9 8 7 9 6 4 6 9 8 8 9 10 4 10 10 8 7 7 6 10 11 10 11 11 12 13 13 14 13 12 12 12 12 11 10 11 12 13 14 14 15 15 15 14 13 12 11 11 12 12 11 11 9 8 7 7 7 5 5 4 4 3 3 2 2 3 2 1 1 1 1 2 3 3 3 3 3
5 6 6 8 8 8 9 10 5 10 9 1 1 2 6 8 8 9 8 9 10 8 7 9 11 9 9 10 3 9 11 11 11 11 11 12 12 12 11 11 12 12 11 11 11 12 13 14 14 14 15 15 14 13 12 12 11 11 11 11 11 9 8 8 9 8 6 4 4 4 4 3 3 4 3 3 2 1 1 1 1 2 3 3 3 5
3 7 8 8 8 8 8 11 6 6 9 3 3 3 7 5 8 9 9 9 10 8 8 11 9 9 9 8 9 9 10 10 11 12 12 12 12 11 11 11 11 11 10 11 12 12 12 13 13 14 14 14 12 11 12 11 10 10 10 11 12 11 9 9 9 8 7 5 5 4 3 3 3 2 2 1 2 2 1 1 1 1 2 2 2 2
2 3 1 7 9 10 7 1 1 5 9 5 6 8 9 9 9 9 9 9 9 11 12 14 12 11 9 8 6 9 9 8 8 9 10 11 11 11 10 11 10 10 11 11 12 13 12 12 13 14 14 14 12 10 11 11 10 10 10 11 12 12 9 9 10 9 8 7 6 5 5 5 4 3 2 3 3 2 2 2 1 2 1 2 2 2
10 9 8 8 11 9 5 6 6 8 7 7 7 8 8 10 8 9 8 9 9 10 12 14 14 11 9 8 9 5 8 7 6 8 10 10 11 10 9 10 10 11 11 11 12 12 13 13 12 12 12 13 13 12 12 11 10 11 11 11 12 12 11 10 10 10 9 7 6 5 5 5 4 4 4 3 3 2 3 3 3 2 2 2 2 3
12 11 9 11 10 13 10 9 9 9 9 9 9 9 10 8 6 9 7 10 11 9 9 9 6 8 13 13 11 6 5 7 6 8 8 10 10 10 10 11 10 10 11 11 12 12 12 12 12 13 14 14 14 12 13 12 11 11 11 12 13 13 12 11 10 10 9 8 7 6 6 6 5 5 4 3 3 3 3 3 3 3 3 3 3 3
7 12 13 11 10 11 10 9 7 8 9 11 11 9 9 9 9 10 10 8 10 14 16 10 8 10 8 8 10 9 8 7 7 8 6 9 10 10 10 11 11 11 12 11 12 13 13 13 13 14 14 14 12 13 12 12 11 10 10 12 13 13 13 11 11 11 10 10 8 8 7 6 6 6 5 4 4 4 3 3 3 4 4 4 4 5
7 7 10 10 8 9 13 12 11 8 8 11 11 12 10 10 9 10 9 9 10 4 6 2 4 4 5 1 5 11 10 9 9 9 9 7 8 8 8 9 9 11 11 11 11 11 13 14 15 13 13 12 12 12 12 11 11 11 10 12 13 13 13 13 12 11 11 10 10 9 7 7 6 6 5 5 3 4 4 3 4 4 4 5 5 5
12 11 3 10 3 8 11 12 13 13 12 10 10 11 13 10 7 13 10 12 11 7 6 6 7 3 6 5 4 3 6 9 10 12 11 11 10 10 9 10 10 9 10 11 11 12 12 13 13 12 12 12 12 13 11 12 11 11 11 12 13 13 13 13 12 11 11 10 9 9 9 8 7 6 5 4 4 3 3 4 4 5 5 5 5 6
7 9 5 8 4 9 9 8 11 9 9 3 6 12 12 11 12 9 10 15 11 8 14 8 8 11 10 14 13 12 12 12 12 13 13 12 12 11 10 10 11 11 11 11 12 11 12 12 13 12 12 11 11 11 11 12 12 12 11 11 13 13 12 13 13 11 11 10 10 10 9 8 7 7 6 5 5 5 4 4 5 5 6 6 6 6
9 10 6 7 10 9 11 11 11 9 10 10 11 8 9 11 11 8 10 6 9 12 9 8 9 10 10 9 8 16 16 14 14 13 13 13 12 13 12 11 10 11 12 12 12 12 12 12 13 12 12 12 11 11 11 12 10 10 10 11 12 13 14 14 13 12 11 11 11 10 10 9 8 7 6 5 5 5 5 6 5 6 6 6 6 6
3 10 10 13 15 11 6 5 11 14 14 14 13 9 10 6 10 9 6 12 11 11 10 9 15 13 14 13 10 13 13 13 15 14 13 14 14 13 12 12 11 11 10 11 11 11 11 11 12 12 12 13 12 10 10 10 9 9 9 10 11 13 14 14 12 12 10 11 9 8 9 10 8 7 6 6 6 5 6 7 7 7 7 7 7 8
5 8 10 9 12 8 8 8 11 10 12 15 11 12 12 11 12 12 8 9 9 13 11 11 16 13 12 12 12 15 16 13 12 13 14 14 14 13 11 10 10 10 10 10 11 11 11 12 13 14 13 14 10 10 9 10 8 10 9 10 10 11 12 13 13 12 12 11 10 9 9 9 8 8 7 7 7 7 7 7 7 8 8 9 8 8
5 5 12 8 12 7 10 8 12 11 11 9 11 11 10 10 10 12 10 11 12 11 11 12 14 12 12 10 11 12 13 15 12 13 13 13 14 13 13 10 9 9 10 10 11 11 12 12 12 12 12 13 11 10 9 9 9 9 9 10 11 12 13 14 13 13 11 11 10 10 10 9 8 8 7 7 7 7 7 7 8 8 8 8 9 9
6 5 11 11 10 12 13 12 13 14 12 10 9 11 10 10 12 11 13 11 12 12 12 12 14 13 11 7 8 10 11 12 14 13 13 14 13 13 10 10 9 9 10 11 10 10 11 12 12 12 12 8 10 10 10 9 9 10 10 9 10 11 12 13 13 12 12 11 10 11 10 9 8 7 7 8 8 8 8 8 8 8 9 10 10 10
4 5 9 11 11 13 16 17 16 17 16 16 12 13 12 11 11 11 12 12 11 12 13 16 13 13 10 10 12 13 13 15 15 14 15 9 10 12 12 12 12 12 11 12 12 11 11 11 11 13 11 10 10 10 10 9 9 9 10 10 10 11 12 13 13 12 11 11 10 11 10 9 8 8 8 8 8 8 9 8 9 8 9 10 10 10
4 3 8 14 14 17 19 17 18 19 18 17 16 16 14 15 15 15 14 11 12 13 13 11 13 13 12 9 11 9 12 13 10 12 12 12 10 13 13 11 13 13 12 12 11 11 11 11 12 10 11 11 10 9 10 9 8 9 9 9 10 11 12 13 12 11 11 11 10 10 10 9 8 8 8 8 8 9 9 9 8 9 9 10 10 10
4 3 8 10 10 10 11 12 14 13 13 12 11 9 10 11 12 12 11 9 10 13 17 13 15 11 9 9 8 9 8 11 15 14 13 16 12 12 12 12 13 13 13 14 14 13 13 13 11 10 11 11 13 11 9 9 8 9 9 9 9 10 11 12 11 11 12 11 11 10 9 9 8 8 8 8 7 8 8 9 9 8 10 10 10 11
7 8 7 9 10 11 10 7 7 5 6 6 8 9 9 13 15 10 10 9 13 14 19 14 13 13 15 15 16 12 12 13 14 15 16 14 16 15 13 14 15 15 15 16 15 15 14 13 11 12 13 13 11 9 10 9 8 8 9 9 9 9 11 11 11 11 10 10 11 10 10 9 8 8 8 8 8 8 8 9 9 9 9 10 11 11
5 9 10 11 11 13 14 13 13 12 11 10 13 15 15 15 15 14 12 12 14 13 14 15 16 15 19 19 18 18 19 19 17 17 15 13 13 15 20 15 15 16 16 17 17 15 14 13 14 14 14 11 10 9 9 9 9 9 9 10 9 9 10 10 10 10 10 10 9 9 9 9 8 7 7 7 7 7 8 9 9 10 10 10 11 12
8 9 13 15 19 21 21 21 19 16 16 19 20 19 20 20 18 17 14 16 16 15 18 14 15 13 16 19 19 19 19 20 19 18 17 15 9 7 10 18 21 17 17 16 16 17 16 15 14 14 12 11 10 9 9 8 9 9 10 10 10 10 10 9 10 10 10 9 8 8 8 7 7 6 7 7 7 7 8 9 9 10 10 10 12 12
7 10 13 14 19 21 20 21 19 18 18 19 21 21 23 22 20 16 15 20 19 15 18 17 20 16 18 21 24 24 22 21 20 21 20 20 17 15 13 10 13 21 18 17 16 16 15 15 14 14 13 12 12 11 10 9 9 9 9 9 9 10 10 10 10 10 10 9 9 8 7 6 6 6 7 7 8 9 9 9 9 10 10 11 11 11
8 11 13 14 19 20 21 19 18 18 16 18 21 24 24 23 20 21 22 21 22 22 21 20 19 22 20 22 25 24 21 21 20 19 19 20 20 19 17 17 12 10 21 19 17 16 15 15 15 14 13 12 12 12 11 10 10 10 10 10 10 10 10 10 10 10 10 9 8 7 7 7 6 7 7 8 8 8 9 9 9 10 11 12 13 14
10 9 9 10 12 17 18 17 18 19 19 20 22 24 24 21 20 21 21 17 20 17 20 19 18 17 19 22 23 23 20 17 19 22 22 22 22 21 19 22 17 14 12 19 19 16 16 16 15 13 13 13 12 12 10 10 9 9 10 10 10 11 11 11 10 10 9 8 8 7 7 6 7 7 8 8 8 8 9 10 9 10 11 12 13 14
8 9 11 12 13 15 15 14 15 17 19 20 22 24 19 17 16 14 14 10 12 14 16 14 16 17 17 21 20 20 21 21 21 21 21 19 23 23 19 22 21 22 20 13 20 17 16 14 13 13 13 12 12 12 10 10 9 9 10 10 10 10 11 10 9 9 8 7 7 7 7 7 7 7 8 8 8 9 9 9 10 11 11 12 13 14
11 10 10 10 13 16 17 13 15 11 12 16 22 15 13 19 20 19 19 20 19 15 14 16 16 16 19 18 19 20 21 22 22 20 20 22 22 23 23 24 22 20 22 19 13 20 13 11 12 13 13 12 11 11 11 10 9 10 10 10 10 10 10 10 9 8 8 7 7 6 6 6 7 7 8 8 8 8 8 9 10 11 11 13 13 14
11 12 10 8 11 14 16 11 10 10 15 19 8 9 14 14 14 16 13 14 17 16 13 15 17 19 20 20 21 21 23 22 20 20 19 14 15 20 22 25 23 21 21 12 11 22 13 12 12 12 11 11 11 10 10 10 9 9 9 10 10 10 9 9 8 8 7 7 6 6 6 6 7 8 8 8 7 8 10 10 10 10 10 12 13 14
12 11 11 10 10 13 12 10 11 16 19 10 13 15 15 17 18 19 19 19 19 18 19 20 20 21 21 20 21 23 23 23 22 23 23 21 17 15 21 21 19 16 10 8 18 19 13 13 12 11 11 9 9 7 8 8 8 9 9 10 10 9 9 9 8 7 6 6 5 5 6 7 7 8 8 7 8 9 10 10 10 11 11 12 13 14
13 13 10 11 10 10 12 11 14 18 12 14 15 15 15 14 16 15 16 17 19 20 19 20 19 20 19 17 16 15 17 20 18 16 18 23 19 12 12 19 19 11 8 11 18 14 13 13 12 12 11 9 9 9 8 8 9 9 10 10 10 9 9 8 7 6 6 6 5 6 6 7 7 8 8 8 9 10 10 10 10 11 10 11 13 14
19 16 13 14 11 15 13 15 17 14 17 18 12 8 7 9 5 6 10 9 13 13 15 17 16 13 13 13 14 15 17 18 18 17 17 20 21 16 10 15 15 10 13 16 14 12 12 11 11 10 10 9 8 8 7 8 9 10 10 10 10 9 9 8 7 6 5 4 5 5 6 6 7 8 8 9 10 11 10 10 11 11 9 11 14 15
18 17 12 15 12 14 15 16 14 13 16 12 11 3 4 4 4 3 1 10 14 14 9 8 11 11 11 11 13 15 15 15 15 15 13 15 19 15 10 15 16 10 13 14 12 11 9 8 8 9 7 7 6 6 6 9 10 10 10 10 10 9 9 8 7 6 4 4 3 5 5 7 7 8 9 9 10 11 10 10 10 11 9 11 14 16
16 17 15 16 14 14 15 15 13 13 12 10 5 5 1 1 5 2 4 11 5 7 8 8 8 12 12 12 13 13 11 13 14 13 10 14 16 16 17 8 15 15 13 11 12 10 10 6 6 8 7 6 7 7 7 10 11 11 11 10 9 9 8 7 4 3 2 2 4 5 6 7 8 8 9 10 10 10 10 10 11 10 8 10 14 16
17 12 12 15 17 16 15 14 15 9 11 8 8 6 7 9 5 3 8 6 5 7 3 7 9 8 11 11 10 10 9 12 13 12 12 13 17 18 16 18 9 12 9 11 9 10 9 8 7 5 6 6 6 7 9 11 11 11 10 10 8 7 6 4 2 0 1 3 4 5 6 6 8 8 9 9 10 10 10 9 11 11 11 13 14 15
10 11 12 16 14 16 15 14 13 10 8 9 10 10 7 5 5 9 12 7 9 11 10 8 11 9 8 9 9 10 10 12 16 16 16 13 3 10 5 7 10 9 11 11 9 8 8 8 6 6 6 6 6 8 9 11 11 11 10 9 8 6 5 3 2 1 2 3 5 6 7 6 7 8 8 9 10 9 9 9 10 8 10 13 14 15
13 10 11 11 14 14 12 12 12 9 3 2 3 7 5 7 8 11 7 11 13 14 13 10 11 10 10 10 9 10 14 17 18 17 17 15 11 11 9 5 3 7 7 8 9 6 7 6 6 4 4 4 7 9 10 11 11 10 10 8 7 5 4 3 1 1 3 4 5 6 6 6 7 7 7 9 10 11 11 10 9 9 11 13 14 16
11 9 11 12 9 10 10 14 11 13 2 4 6 7 1 6 7 8 10 13 11 13 13 12 9 10 10 11 12 14 16 18 17 15 13 7 8 8 8 9 8 3 5 8 7 8 7 6 7 7 7 6 7 9 11 12 12 11 9 8 6 5 4 3 1 2 3 4 5 6 6 6 7 7 7 7 9 10 10 11 10 11 12 14 14 15
9 10 10 10 7 12 10 10 8 2 1 7 3 6 4 8 12 13 11 13 11 12 13 14 11 9 9 12 13 14 16 17 16 13 10 9 7 7 9 10 8 10 8 9 10 11 9 7 7 7 7 6 8 10 11 12 11 10 9 8 6 4 3 3 1 1 3 4 5 6 6 7 8 7 8 9 9 9 10 10 9 11 12 13 13 13
4 12 9 13 5 7 8 10 9 12 13 11 12 13 14 13 12 13 11 8 8 7 9 10 13 12 10 13 14 13 14 15 14 12 9 11 11 8 8 11 11 11 10 8 7 7 6 5 5 6 7 6 9 11 11 11 11 11 9 8 6 5 4 3 2 2 3 4 5 6 6 7 7 8 8 8 9 9 8 10 10 11 12 12 12 12
14 12 10 8 10 11 14 16 16 15 14 15 13 10 11 10 11 8 5 8 6 6 5 7 12 13 12 11 12 12 13 13 11 9 9 9 5 11 11 11 7 6 6 6 5 5 5 4 5 5 7 8 10 11 11 11 10 10 8 7 6 5 4 3 2 2 3 4 5 6 7 7 8 8 8 10 8 7 7 9 9 11 12 12 11 12
12 8 6 8 10 12 11 8 13 13 13 12 13 12 12 13 14 6 3 5 8 9 9 11 12 13 12 13 12 14 14 13 9 4 7 9 11 9 7 5 6 6 5 5 4 4 3 4 6 7 8 8 10 11 11 11 9 10 8 8 7 6 5 2 1 1 1 3 4 5 6 8 7 8 9 8 7 6 7 8 8 8 7 8 11 12
7 7 4 9 11 10 14 14 15 18 18 19 15 14 8 10 13 10 9 9 8 9 9 10 11 11 11 13 12 11 12 4 4 1 6 10 10 6 4 4 4 5 4 4 4 4 4 5 6 6 8 8 10 11 11 10 9 10 8 8 7 6 4 3 2 2 3 3 3 5 6 7 5 7 7 8 7 6 6 7 8 8 7 8 9 11
15 13 12 8 10 13 15 16 16 17 19 20 17 12 2 4 4 10 13 14 11 10 10 9 9 10 11 13 12 10 4 4 2 8 14 10 5 5 2 2 2 3 4 5 4 3 3 5 7 8 8 8 9 11 12 11 10 9 10 7 7 6 4 4 3 1 1 2 2 5 7 6 6 7 8 8 7 6 5 4 4 4 7 4 6 8
13 14 14 13 12 12 12 12 11 9 8 11 9 10 5 3 7 6 9 12 9 5 6 9 9 10 10 10 6 2 1 3 5 7 6 8 4 1 3 3 4 3 4 3 3 4 4 3 4 7 8 9 10 11 12 11 9 9 9 7 6 5 4 2 2 1 0 2 3 5 6 7 6 7 8 8 8 7 6 4 8 4 3 6 7 8
13 16 13 13 11 11 10 12 8 12 16 14 13 13 9 7 10 11 9 12 9 4 6 7 10 11 8 7 8 7 6 5 6 7 8 7 5 2 3 4 4 2 2 2 4 5 4 6 6 6 8 10 10 11 12 11 9 9 9 8 6 6 4 3 1 1 2 3 5 4 5 6 7 7 8 8 8 7 7 8 6 5 8 9 9 9
Wind_Direction
141 236 213 225 232 208 205 236 333 7 339 348 306 321 273 281 270 107 122 189 164 267 254 249 243 252 242 240 218 192 193 213 220 218 217 220 224 228 225 227 234 234 237 221 201 191 180 184 175 180 171 172 173 172 177 181 181 179 176 169 168 155 177 225 162 55 33 20 47 59 38 13 27 23 8 115 62 342 36 350 332 347 336 357 345 326
240 246 237 227 38 27 71 349 302 313 317 273 276 263 266 246 252 282 8 109 180 253 261 255 255 251 244 242 242 207 195 210 220 225 226 225 226 229 236 241 240 234 229 230 206 189 179 185 176 178 177 175 180 178 179 187 185 185 187 179 165 166 163 150 101 109 79 50 35 20 34 9 26 18 12 359 32 22 13 0 345 323 336 351 320 298
219 236 250 117 91 65 14 287 277 262 259 248 254 253 240 251 251 111 159 178 236 217 259 262 258 249 251 248 248 246 217 210 213 226 233 236 234 233 236 239 238 238 243 227 205 180 185 185 179 179 180 181 186 179 183 186 190 187 188 190 169 174 166 154 159 191 124 110 49 29 53 15 26 68 35 14 37 17 324 163 216 327 328 335 320 313
226 239 160 129 96 239 232 240 235 230 245 252 225 241 253 277 290 221 180 207 209 249 265 257 260 252 242 246 248 240 238 235 218 220 233 241 241 237 237 241 245 245 243 230 179 181 186 188 182 180 181 183 184 185 185 188 195 191 191 192 180 171 176 152 166 132 106 97 113 98 66 68 31 48 113 142 154 73 2 332 0 304 2 335 312 308
273 95 99 106 144 190 221 214 224 234 237 221 256 267 266 251 236 258 45 208 166 241 254 269 270 265 249 240 234 236 234 234 238 229 228 230 234 241 250 256 257 248 222 206 180 185 190 190 187 185 183 181 184 188 190 188 193 193 193 190 184 174 178 165 151 167 159 155 191 175 179 205 178 169 57 50 11 354 335 274 255 357 342 308 297 312
236 106 110 177 178 206 234 221 217 249 249 245 213 236 272 307 309 272 207 244 239 244 207 230 244 253 230 227 232 228 215 226 228 235 231 224 226 230 236 236 231 225 227 207 192 189 189 189 188 188 185 184 186 190 191 186 191 192 192 190 181 180 178 163 164 166 188 188 187 192 187 151 77 81 57 37 23 356 352 339 11 256 277 310 309 304
54 135 222 196 214 224 234 243 222 208 262 255 283 187 224 266 279 256 246 233 242 264 162 189 264 286 60 216 207 220 201 214 228 237 238 230 230 230 225 219 213 211 199 210 201 186 186 186 188 188 188 187 188 190 185 185 189 191 192 188 184 183 177 168 164 166 183 179 165 173 144 94 50 76 97 85 108 19 346 335 322 314 259 255 283 285
195 160 180 201 228 236 230 228 234 241 243 251 81 184 223 243 241 241 245 242 269 315 153 213 249 282 276 252 208 191 204 211 211 216 223 223 221 220 213 207 206 204 193 196 202 194 188 186 187 187 187 188 189 186 186 186 187 190 193 188 186 187 179 171 166 172 193 187 169 168 173 175 149 85 114 151 148 144 225 334 303 296 296 294 259 258
190 168 198 202 230 237 231 230 257 201 234 350 322 286 221 243 238 237 236 245 247 248 268 215 216 244 253 257 255 172 205 216 218 206 206 215 212 209 211 210 204 204 189 188 194 196 189 185 186 185 184 187 186 187 184 183 185 186 191 190 188 192 181 172 172 170 181 202 171 188 184 180 139 164 162 174 163 178 117 244 317 311 311 281 277 290
179 204 191 231 226 225 232 250 153 202 231 192 246 254 276 247 244 243 245 247 251 266 254 254 205 248 250 234 189 197 236 230 218 212 206 207 213 208 206 211 215 200 188 192 193 191 188 184 183 182 181 183 185 181 180 180 181 183 186 187 188 191 187 172 175 174 171 173 181 197 173 177 166 171 163 228 121 214 211 208 249 268 267 297 284 271
64 152 307 233 226 242 276 37 188 214 241 25 252 252 226 229 232 224 246 261 272 252 242 244 232 221 259 263 245 193 202 234 218 205 201 200 204 206 201 206 206 203 188 196 190 187 185 181 180 179 180 181 177 175 179 179 181 181 185 188 190 192 189 178 178 178 171 176 193 185 173 183 170 172 189 195 181 205 237 257 230 262 270 290 296 292
208 193 205 220 239 252 261 217 214 238 250 231 232 233 241 222 227 243 240 246 252 249 247 239 235 204 247 246 253 263 148 197 239 245 197 196 201 203 198 208 209 211 200 196 195 183 179 175 178 180 183 179 174 173 179 179 180 182 187 189 194 193 193 181 181 179 174 179 185 180 177 180 181 182 188 201 191 206 229 246 261 244 259 253 256 256
221 217 211 217 206 231 213 244 204 208 217 225 235 240 243 250 226 244 228 232 231 246 252 255 216 213 232 268 307 328 172 189 223 250 211 195 201 206 210 211 218 219 217 203 198 183 177 178 178 184 184 178 175 179 182 181 182 185 188 191 195 195 193 185 184 180 178 180 182 180 182 182 181 195 202 199 208 204 224 230 241 272 278 273 268 258
230 225 210 211 195 198 232 233 211 206 204 223 233 231 235 247 247 243 245 234 245 232 241 247 211 243 259 263 262 255 192 213 206 233 227 191 202 206 214 209 212 218 220 217 204 195 187 184 181 182 185 184 181 183 184 183 183 185 189 192 197 196 191 186 185 185 181 184 184 183 184 187 182 192 197 212 208 207 238 247 246 246 259 277 276 276
271 239 212 201 212 187 226 230 256 256 216 229 240 242 245 257 265 267 267 271 274 324 20 42 251 236 233 215 249 238 234 192 205 211 209 215 215 221 232 242 224 216 221 222 211 206 192 192 191 188 188 187 187 188 185 185 187 186 189 192 195 197 190 189 188 188 186 184 186 182 188 186 191 192 195 208 212 210 228 243 255 259 266 264 270 269
270 275 310 189 272 177 220 223 241 266 267 234 228 251 251 241 244 267 296 302 301 305 271 208 227 246 231 263 234 266 218 211 204 208 207 199 212 212 219 227 239 229 223 221 221 215 206 192 193 193 193 192 193 193 188 190 186 186 191 190 194 197 190 191 189 191 188 187 182 184 185 188 191 195 199 206 204 218 225 247 256 259 262 269 273 275
253 253 269 168 174 225 241 237 229 238 258 276 256 240 251 273 275 271 259 259 274 267 263 270 247 231 265 266 250 230 230 228 215 216 209 207 203 208 215 219 224 231 227 220 221 217 211 194 191 197 196 194 194 193 191 188 183 184 184 188 191 196 191 190 191 193 190 188 184 185 184 186 187 195 200 208 207 212 227 245 255 257 263 267 269 275
274 277 278 241 239 218 244 249 266 243 249 266 251 258 281 271 279 274 269 271 259 259 266 262 261 262 247 261 252 242 224 235 239 222 220 212 211 209 212 218 224 225 226 222 217 216 207 200 193 198 198 196 194 194 186 179 173 177 182 185 189 192 192 189 191 193 191 188 187 183 188 189 189 192 198 208 212 216 227 233 241 250 253 254 260 263
297 278 261 248 255 263 247 271 258 251 251 258 265 290 279 261 247 231 261 262 258 259 271 250 250 248 252 262 258 262 249 232 238 236 224 218 214 217 215 215 216 220 219 217 213 209 206 199 197 197 200 198 192 183 179 165 161 168 176 185 191 195 194 189 189 191 190 190 187 187 189 188 189 195 200 206 214 220 229 234 242 252 257 263 263 265
242 267 273 267 263 261 249 234 251 257 231 237 260 260 256 270 263 265 254 260 260 269 265 261 261 266 255 261 259 261 274 263 233 239 235 236 224 216 221 218 210 208 207 209 208 206 206 203 203 199 200 209 175 160 155 156 159 167 175 184 192 197 195 187 189 190 191 190 191 187 187 189 193 198 202 207 210 220 228 235 240 245 251 253 260 261
277 275 277 278 287 268 248 225 252 260 264 245 229 248 253 245 264 275 267 250 255 262 260 275 270 263 263 272 264 261 271 282 253 227 237 239 239 225 220 218 216 206 201 209 207 204 203 203 205 209 200 211 167 153 157 163 170 172 178 187 192 194 189 188 189 190 193 190 192 188 190 189 195 200 204 211 215 227 234 239 241 247 251 258 256 260
261 252 265 281 269 256 255 243 264 275 277 274 284 274 263 258 253 242 252 243 249 255 262 265 265 269 271 265 260 260 264 264 276 267 242 235 233 234 229 225 219 220 205 206 212 212 207 207 207 215 212 194 150 162 170 169 175 178 180 186 189 191 192 190 188 193 193 192 192 189 191 192 196 200 212 214 219 227 234 239 241 244 249 253 256 259
318 301 279 271 262 269 274 279 273 272 274 275 277 272 272 275 276 269 271 269 268 259 268 268 282 269 277 293 296 291 280 275 276 272 270 247 227 230 226 216 216 215 212 208 207 211 219 218 214 212 179 173 177 181 174 172 179 178 183 184 188 190 192 191 190 192 194 192 193 194 192 196 199 205 210 219 225 231 238 242 247 247 251 254 260 263
340 264 266 262 266 261 262 262 263 264 267 265 252 249 255 257 265 272 276 292 287 288 274 267 257 268 276 293 285 303 333 312 278 271 288 281 243 225 228 229 221 215 216 215 206 210 215 218 217 209 178 192 186 186 177 178 183 180 184 189 188 191 191 188 191 193 194 193 194 192 196 197 205 208 213 221 228 239 242 246 248 253 256 262 267 270
309 239 267 282 283 276 264 249 246 238 244 251 263 268 287 298 292 298 296 275 270 262 261 265 266 264 285 284 296 329 305 287 293 299 293 284 260 227 229 228 230 226 215 212 213 209 208 215 207 197 198 205 209 193 182 189 190 181 182 188 190 187 191 192 190 194 193 193 192 193 198 202 206 211 217 226 238 244 248 252 255 257 262 263 266 269
278 286 282 270 275 278 271 264 274 301 325 336 321 308 283 274 280 289 267 263 259 259 260 258 265 272 281 286 292 303 306 300 298 305 308 291 292 282 235 224 225 229 222 212 212 209 206 204 204 208 216 219 216 197 183 189 188 180 180 185 186 184 187 190 189 193 194 192 193 194 201 205 211 218 225 234 242 247 251 257 259 262 262 266 268 269
278 282 273 266 268 267 274 290 309 320 296 288 285 276 275 271 269 266 271 268 262 270 270 268 275 283 282 285 286 286 283 285 289 289 293 306 309 299 282 247 229 233 223 218 210 209 202 202 212 220 220 220 218 207 187 184 182 176 174 176 181 182 184 186 188 190 196 198 194 199 203 209 215 222 230 237 247 254 258 260 264 265 269 271 273 273
259 262 253 258 257 262 273 277 283 284 280 275 274 272 272 270 268 267 266 267 278 286 272 269 276 283 281 286 286 287 289 289 286 284 281 280 293 288 295 304 282 234 224 219 212 209 206 203 209 217 221 200 206 189 195 179 182 171 171 174 179 179 179 181 187 191 194 196 198 208 212 215 220 228 238 246 253 257 260 265 265 268 273 276 275 277
259 261 260 259 260 266 271 277 283 283 279 279 279 276 272 270 268 265 263 267 273 267 272 286 291 283 281 280 283 282 284 285 285 286 286 280 282 290 296 292 297 289 251 220 217 212 209 208 205 206 205 194 197 187 179 177 174 164 171 174 177 176 178 177 185 189 192 194 201 208 214 217 223 236 244 248 251 255 258 265 273 277 278 277 276 276
248 251 263 265 273 269 267 271 276 277 279 277 273 271 268 267 267 268 268 267 265 267 272 275 275 276 277 278 277 280 282 284 284 283 277 271 262 260 258 262 270 273 289 258 223 221 211 213 209 201 192 189 190 176 176 176 175 172 174 177 174 177 174 176 184 189 192 197 201 206 214 219 226 231 240 248 251 255 263 270 275 275 276 278 279 281
251 254 240 261 272 272 270 272 272 270 269 268 266 264 264 266 271 269 266 265 267 269 267 267 271 274 271 270 275 280 283 282 280 273 267 266 264 251 247 254 247 257 252 279 257 222 217 211 211 194 186 188 187 179 181 175 179 177 177 176 174 175 175 177 183 190 194 200 204 206 213 225 235 242 244 247 255 262 268 269 271 279 282 284 286 286
245 274 278 270 269 269 266 265 268 269 268 267 265 260 262 267 264 258 260 260 261 264 266 270 266 264 267 271 272 275 277 275 273 272 268 260 262 258 241 247 242 240 243 237 263 243 224 209 197 186 186 184 182 176 176 172 186 175 181 175 177 176 178 180 182 191 193 203 208 211 224 233 238 244 250 255 262 265 273 278 279 279 283 288 290 291
253 263 264 263 263 264 271 274 277 290 289 272 255 257 262 254 253 260 260 259 255 255 259 259 258 262 267 274 277 275 276 277 275 275 277 268 259 257 252 250 241 237 242 234 243 261 224 187 187 187 185 180 176 178 177 178 189 181 186 173 182 175 179 177 182 190 195 203 213 220 233 242 251 256 257 259 264 272 275 277 279 283 287 291 295 295
256 255 258 260 262 268 275 276 275 267 257 251 275 267 249 256 254 254 256 256 255 249 257 259 265 270 271 271 272 276 277 276 279 279 281 292 297 281 263 253 248 239 241 224 228 243 205 197 187 184 176 175 179 184 179 182 186 180 182 173 182 176 177 179 186 199 200 206 219 235 240 249 255 260 264 265 270 273 275 274 279 287 293 295 294 293
252 249 252 251 257 266 272 265 256 246 247 272 275 267 270 270 274 271 266 262 263 264 265 266 267 267 272 274 276 281 282 282 281 284 283 277 276 282 279 265 253 245 247 207 226 222 192 186 169 161 167 169 161 158 155 170 178 176 176 177 178 173 181 190 192 197 205 215 231 241 248 253 255 261 265 269 270 270 271 276 283 288 295 296 295 294
246 243 250 249 255 265 259 252 254 247 264 274 274 277 277 275 268 275 272 270 272 271 273 274 277 280 285 301 320 313 310 308 306 295 295 286 269 261 270 272 249 193 183 232 215 190 178 166 161 159 168 167 155 165 178 176 177 179 178 177 176 177 188 193 199 204 203 214 225 243 252 256 259 265 266 267 269 274 279 281 286 296 303 298 293 292
247 252 247 255 243 252 254 254 258 282 278 270 274 272 277 279 293 294 285 281 283 291 288 283 285 298 311 320 317 321 316 311 299 288 274 276 276 266 287 292 267 227 202 209 192 169 157 162 164 164 155 158 177 175 189 181 179 179 177 177 180 185 187 195 201 214 203 213 243 253 263 267 271 273 274 275 276 275 277 285 295 299 306 298 296 296
235 240 242 251 249 250 258 263 263 261 261 258 258 79 12 8 32 33 310 289 277 271 287 308 308 309 320 320 315 318 324 306 292 282 276 274 272 253 223 240 250 242 213 179 158 143 146 153 146 139 163 163 176 187 186 181 178 178 178 182 185 188 191 190 206 213 216 231 254 270 270 272 271 269 270 275 281 284 287 294 298 300 308 303 299 298
249 247 244 244 255 250 249 255 255 257 262 277 305 145 4 331 256 227 276 271 328 18 11 321 318 305 312 316 312 311 308 295 291 299 322 334 326 294 258 284 247 207 168 139 139 142 147 161 164 160 160 169 177 190 199 177 179 180 179 185 188 191 200 202 208 199 242 266 282 289 291 288 283 282 282 281 282 286 294 300 300 302 305 303 300 300
250 249 248 247 248 247 251 253 256 255 269 284 284 179 184 200 126 261 269 277 66 298 314 320 320 313 308 314 314 298 293 291 298 308 313 309 301 274 231 222 198 122 147 142 156 169 148 146 159 169 165 176 190 187 193 175 178 182 180 186 189 192 198 198 183 28 319 285 283 279 278 275 271 271 275 283 290 295 300 305 301 307 309 303 302 302
259 251 241 249 253 256 254 257 264 264 282 332 349 343 32 351 295 279 267 309 357 327 329 329 319 331 323 309 309 300 293 296 301 305 300 283 257 312 320 164 198 156 160 152 161 125 153 182 194 190 183 186 189 188 182 178 180 181 183 182 186 186 188 146 135 270 294 301 288 280 276 279 285 291 291 295 296 299 297 298 305 320 317 309 305 303
261 265 265 259 250 255 260 267 264 275 290 159 20 338 340 293 253 262 325 329 318 311 312 316 316 320 324 314 311 300 299 297 296 299 304 278 218 162 245 313 282 204 165 91 103 164 206 183 162 162 169 171 189 182 180 180 179 181 180 177 178 177 136 132 166 245 283 276 280 285 293 292 294 294 291 290 295 296 299 305 323 323 314 308 305 303
269 267 257 250 249 244 248 263 274 270 74 345 25 294 48 279 291 318 306 299 305 300 309 312 310 318 325 317 309 303 300 299 299 306 318 301 182 198 184 212 201 120 128 129 178 199 203 177 173 188 185 179 192 183 181 180 177 182 172 172 164 140 138 122 159 267 274 285 286 288 283 285 286 288 291 293 296 304 305 308 319 319 310 308 306 305
271 261 258 257 247 268 257 247 247 333 43 185 155 276 257 240 265 285 292 290 307 320 315 309 312 320 319 308 305 301 302 301 301 312 320 297 259 213 207 199 158 190 165 189 192 178 186 197 184 169 175 180 187 183 179 178 177 179 167 164 161 155 136 149 208 289 288 278 281 283 294 298 298 300 300 302 308 305 304 316 326 313 310 310 306 305
205 249 263 277 270 261 271 284 295 298 295 297 291 289 288 300 305 299 310 316 310 302 315 313 306 309 316 308 305 305 301 298 301 313 337 299 274 264 238 192 175 170 178 185 177 149 172 188 191 167 172 179 186 180 177 176 182 165 171 174 135 161 170 155 182 238 271 286 302 319 314 306 309 309 305 314 309 307 323 321 319 313 313 309 304 302
286 285 287 278 270 273 261 258 275 278 278 285 289 298 301 297 283 268 294 301 311 304 292 287 289 312 315 306 303 302 298 298 300 328 331 315 262 239 216 190 179 163 160 157 167 159 207 186 163 186 174 180 184 177 172 176 176 159 167 162 150 172 144 159 188 232 299 326 332 327 317 322 315 313 324 313 303 320 326 318 316 318 318 312 302 302
265 294 308 277 303 301 266 254 263 278 290 292 287 280 259 235 248 263 299 284 306 315 318 313 323 322 318 305 295 298 298 291 294 294 305 299 276 233 222 177 166 166 158 163 108 122 183 206 179 191 182 176 180 171 170 179 179 174 173 139 159 158 148 134 153 270 284 360 336 340 332 326 334 328 309 302 316 323 322 320 321 322 317 310 305 302
275 91 276 265 258 247 270 290 298 300 296 287 276 276 310 3 350 336 323 310 301 307 312 326 328 322 320 301 301 302 291 300 18 48 275 271 269 267 240 200 165 156 136 117 136 176 188 184 196 178 176 172 176 172 165 171 164 169 142 154 156 145 139 127 66 349 44 358 354 346 348 336 326 307 324 325 325 323 325 320 318 320 316 317 310 302
289 288 269 263 268 263 261 256 258 271 273 266 266 269 39 344 4 315 316 308 301 319 335 341 348 346 327 310 308 303 269 177 232 258 233 225 259 290 265 217 193 140 148 142 137 182 202 168 201 171 198 163 176 173 163 165 173 169 149 166 151 147 152 131 146 226 47 7 7 8 352 327 332 339 335 330 322 325 318 339 329 311 310 309 305 301
271 257 260 261 265 271 275 287 300 281 284 291 308 310 357 33 312 296 285 296 319 23 329 344 338 342 326 317 314 8 312 324 287 309 335 328 198 182 245 217 199 201 183 155 177 166 150 168 245 163 178 160 177 174 166 164 185 165 159 157 149 152 142 155 189 191 168 11 334 25 351 332 328 342 337 332 329 323 325 129 174 243 307 318 301 271
264 267 273 273 276 275 285 283 283 279 284 281 286 297 334 328 303 307 323 296 298 354 354 341 338 337 336 329 330 330 329 296 304 330 328 338 341 328 291 302 315 259 248 190 213 181 196 166 183 184 176 166 168 173 165 175 169 151 158 151 169 159 168 177 226 339 12 334 351 24 320 322 329 340 334 333 330 327 322 322 327 165 201 235 268 271